TimeCDT,TemperatureF,Dew PointF,Humidity,Sea Level PressureIn,VisibilityMPH,Wind Direction,Wind SpeedMPH,Gust SpeedMPH,PrecipitationIn,Events,Conditions,WindDirDegrees,DateUTC
12:15 AM,64.6,43.7,47,29.75,10.0,SSW,17.3,21.9,N/A,,Clear,200,2013-09-30 05:15:00
12:35 AM,64.6,43.7,47,29.75,10.0,SSW,16.1,21.9,N/A,,Clear,200,2013-09-30 05:35:00
12:55 AM,64.4,44.1,48,29.75,10.0,SSW,13.8,-,N/A,,Clear,200,2013-09-30 05:55:00
1:15 AM,64.0,44.4,49,29.75,10.0,SSW,16.1,-,N/A,,Clear,210,2013-09-30 06:15:00
1:35 AM,63.1,44.8,51,29.75,10.0,SSW,13.8,-,N/A,,Clear,200,2013-09-30 06:35:00
1:55 AM,62.2,45.0,53,29.75,10.0,SSW,13.8,-,N/A,,Clear,200,2013-09-30 06:55:00
2:15 AM,61.7,45.5,55,29.75,10.0,SSW,12.7,-,N/A,,Clear,210,2013-09-30 07:15:00
2:35 AM,60.8,45.5,57,29.76,10.0,SW,10.4,-,N/A,,Clear,220,2013-09-30 07:35:00
2:55 AM,59.7,45.9,60,29.76,10.0,WSW,8.1,-,N/A,,Clear,240,2013-09-30 07:55:00
3:15 AM,59.0,46.2,63,29.75,10.0,SW,9.2,-,N/A,,Clear,220,2013-09-30 08:15:00
3:35 AM,58.3,46.4,65,29.74,10.0,SSW,9.2,-,N/A,,Clear,210,2013-09-30 08:35:00
3:55 AM,57.7,46.6,66,29.73,10.0,SSW,10.4,-,N/A,,Clear,210,2013-09-30 08:55:00
4:15 AM,58.1,46.4,65,29.72,10.0,SSW,11.5,-,N/A,,Clear,210,2013-09-30 09:15:00
4:35 AM,58.6,45.1,61,29.73,10.0,SW,9.2,-,N/A,,Clear,220,2013-09-30 09:35:00
4:55 AM,57.9,45.0,62,29.73,10.0,SW,9.2,-,N/A,,Clear,220,2013-09-30 09:55:00
5:15 AM,58.3,43.5,58,29.72,10.0,SW,10.4,-,N/A,,Clear,230,2013-09-30 10:15:00
5:35 AM,59.9,41.4,50,29.71,10.0,WSW,11.5,-,N/A,,Clear,240,2013-09-30 10:35:00
5:55 AM,61.2,39.6,45,29.71,10.0,WSW,13.8,-,N/A,,Clear,240,2013-09-30 10:55:00
6:15 AM,60.6,39.4,45,29.71,10.0,WSW,12.7,-,N/A,,Clear,240,2013-09-30 11:15:00
6:35 AM,59.7,39.6,47,29.71,10.0,WSW,12.7,-,N/A,,Clear,240,2013-09-30 11:35:00
6:55 AM,58.6,39.4,49,29.72,10.0,WSW,9.2,-,N/A,,Clear,240,2013-09-30 11:55:00
7:15 AM,58.8,39.2,48,29.72,10.0,WSW,9.2,-,N/A,,Clear,240,2013-09-30 12:15:00
7:35 AM,58.8,39.2,48,29.72,10.0,WSW,10.4,-,N/A,,Clear,240,2013-09-30 12:35:00
7:55 AM,57.7,39.4,50,29.72,10.0,WSW,9.2,-,N/A,,Clear,240,2013-09-30 12:55:00
8:15 AM,59.4,39.4,48,29.72,10.0,WSW,9.2,-,N/A,,Clear,250,2013-09-30 13:15:00
8:35 AM,61.0,39.4,45,29.72,10.0,West,8.1,-,N/A,,Clear,260,2013-09-30 13:35:00
8:55 AM,62.8,39.6,42,29.72,10.0,West,13.8,-,N/A,,Clear,260,2013-09-30 13:55:00
9:15 AM,64.2,39.7,41,29.72,10.0,WSW,12.7,-,N/A,,Clear,250,2013-09-30 14:15:00
9:35 AM,66.4,39.6,37,29.72,10.0,West,11.5,-,N/A,,Clear,260,2013-09-30 14:35:00
9:55 AM,69.3,39.6,34,29.72,10.0,West,11.5,17.3,N/A,,Clear,260,2013-09-30 14:55:00
10:15 AM,72.1,38.8,30,29.72,10.0,West,15.0,18.4,N/A,,Clear,270,2013-09-30 15:15:00
10:35 AM,73.9,39.2,28,29.72,10.0,West,11.5,18.4,N/A,,Clear,280,2013-09-30 15:35:00
10:55 AM,75.4,38.7,27,29.73,10.0,West,12.7,18.4,N/A,,Clear,270,2013-09-30 15:55:00
11:15 AM,76.6,38.5,25,29.73,10.0,West,12.7,16.1,N/A,,Clear,280,2013-09-30 16:15:00
11:35 AM,77.9,38.1,24,29.73,10.0,West,13.8,18.4,N/A,,Clear,260,2013-09-30 16:35:00
11:55 AM,79.0,38.7,24,29.72,10.0,West,13.8,20.7,N/A,,Clear,270,2013-09-30 16:55:00
12:15 PM,80.8,37.6,21,29.71,10.0,WNW,10.4,-,N/A,,Clear,290,2013-09-30 17:15:00
12:35 PM,81.9,34.7,18,29.71,10.0,West,12.7,21.9,N/A,,Clear,260,2013-09-30 17:35:00
12:55 PM,82.4,36.3,19,29.70,10.0,WSW,15.0,19.6,N/A,,Clear,250,2013-09-30 17:55:00
1:15 PM,82.9,37.2,20,29.70,10.0,SW,12.7,17.3,N/A,,Clear,230,2013-09-30 18:15:00
1:35 PM,84.2,36.7,18,29.69,10.0,WSW,19.6,26.5,N/A,,Clear,250,2013-09-30 18:35:00
1:55 PM,85.3,35.6,17,29.68,10.0,WSW,17.3,26.5,N/A,,Clear,250,2013-09-30 18:55:00
2:15 PM,86.2,35.4,16,29.66,10.0,SW,15.0,26.5,N/A,,Clear,230,2013-09-30 19:15:00
2:35 PM,86.9,33.4,15,29.65,10.0,West,17.3,25.3,N/A,,Clear,260,2013-09-30 19:35:00
2:55 PM,87.3,33.1,14,29.64,10.0,West,21.9,31.1,N/A,,Clear,260,2013-09-30 19:55:00
3:15 PM,87.3,33.4,15,29.64,10.0,West,19.6,34.5,N/A,,Clear,260,2013-09-30 20:15:00
3:35 PM,87.8,33.6,14,29.63,10.0,WSW,23.0,34.5,N/A,,Clear,250,2013-09-30 20:35:00
3:55 PM,88.0,34.9,15,29.62,10.0,WSW,16.1,32.2,N/A,,Clear,250,2013-09-30 20:55:00
4:15 PM,88.3,34.2,15,29.62,10.0,SW,21.9,29.9,N/A,,Clear,230,2013-09-30 21:15:00
4:35 PM,88.2,36.0,16,29.62,10.0,SW,24.2,29.9,N/A,,Clear,230,2013-09-30 21:35:00
4:55 PM,87.6,35.6,16,29.62,10.0,SW,19.6,28.8,N/A,,Clear,230,2013-09-30 21:55:00
5:15 PM,88.2,34.9,15,29.62,10.0,SW,23.0,28.8,N/A,,Clear,220,2013-09-30 22:15:00
5:35 PM,87.4,33.3,14,29.62,10.0,SW,24.2,32.2,N/A,,Clear,220,2013-09-30 22:35:00
5:55 PM,86.0,37.9,18,29.62,10.0,SSW,20.7,26.5,N/A,,Clear,210,2013-09-30 22:55:00
6:15 PM,85.6,37.2,18,29.62,10.0,SSW,17.3,27.6,N/A,,Clear,210,2013-09-30 23:15:00
6:35 PM,84.2,36.5,18,29.62,10.0,SSW,16.1,25.3,N/A,,Clear,200,2013-09-30 23:35:00
6:55 PM,82.4,36.9,20,29.62,10.0,SSW,15.0,24.2,N/A,,Clear,200,2013-09-30 23:55:00
7:15 PM,79.0,38.5,23,29.63,10.0,SSW,12.7,-,N/A,,Clear,200,2013-10-01 00:15:00
7:35 PM,76.3,39.2,26,29.63,10.0,South,11.5,-,N/A,,Clear,190,2013-10-01 00:35:00
7:55 PM,73.6,39.9,30,29.64,10.0,SSW,12.7,-,N/A,,Clear,200,2013-10-01 00:55:00
8:15 PM,73.6,39.7,29,29.64,10.0,South,11.5,-,N/A,,Clear,190,2013-10-01 01:15:00
8:35 PM,71.8,41.0,33,29.65,10.0,South,12.7,-,N/A,,Clear,190,2013-10-01 01:35:00
8:55 PM,71.8,41.2,33,29.65,10.0,South,11.5,-,N/A,,Clear,190,2013-10-01 01:55:00
9:15 PM,70.0,42.8,37,29.66,10.0,South,11.5,-,N/A,,Clear,190,2013-10-01 02:15:00
9:35 PM,70.0,43.5,38,29.66,10.0,South,15.0,-,N/A,,Clear,190,2013-10-01 02:35:00
9:55 PM,70.9,44.2,38,29.66,10.0,South,18.4,23.0,N/A,,Clear,190,2013-10-01 02:55:00
10:15 PM,70.3,45.3,41,29.66,10.0,South,18.4,-,N/A,,Clear,190,2013-10-01 03:15:00
10:35 PM,69.4,46.0,43,29.68,10.0,SSW,16.1,-,N/A,,Clear,200,2013-10-01 03:35:00
10:55 PM,68.0,46.8,47,29.69,10.0,SSW,13.8,-,N/A,,Clear,210,2013-10-01 03:55:00
11:15 PM,70.3,43.5,38,29.76,10.0,WNW,17.3,27.6,N/A,,Clear,290,2013-10-01 04:15:00
11:35 PM,69.4,44.6,41,29.78,10.0,NW,19.6,25.3,N/A,,Clear,320,2013-10-01 04:35:00
11:55 PM,66.0,47.1,50,29.80,10.0,NW,15.0,-,N/A,,Clear,320,2013-10-01 04:55:00